VK2RZ Weather Reports


time (UTC)temp
F
wind
direction
speed
knots
gust
knots
rain 1hr
in
rain 24hr
in
rain mn
in
humidity
%
barometer
mb
20221203050021 68 59 5.2 6.1 0.00 0.00 0.00 6 1017.7
20221203045017 69 74 7.0 8.7 0.00 0.00 0.00 6 1017.7
20221203044014 69 47 7.8 10.4 0.00 0.00 0.00 6 1017.9
20221203043011 70 108 9.6 9.6 0.00 0.00 0.00 6 1017.7
20221203042009 69 84 7.8 8.7 0.00 0.00 0.00 6 1017.9
20221203041006 69 72 2.6 2.6 0.00 0.00 0.00 6 1018.0
20221203040003 70 45 2.6 9.6 0.00 0.00 0.00 6 1018.2
20221203035000 70 61 2.6 9.6 0.00 0.00 0.00 6 1018.2
20221203033957 69 48 2.6 10.4 0.00 0.00 0.00 6 1018.2
20221203032955 69 77 1.7 8.7 0.00 0.00 0.00 6 1018.3
20221203031953 69 91 3.5 10.4 0.00 0.00 0.00 6 1018.3
20221203030950 69 137 7.0 11.3 0.00 0.00 0.00 6 1018.5
20221203025946 69 68 3.5 11.3 0.00 0.00 0.00 6 1018.5
20221203024944 70 124 4.3 8.7 0.00 0.00 0.00 6 1018.6
20221203023941 70 52 4.3 10.4 0.00 0.00 0.00 6 1018.7
20221203022939 68 120 2.6 12.2 0.00 0.00 0.00 6 1018.6
20221203021936 70 85 2.6 8.7 0.00 0.00 0.00 6 1018.7
20221203020933 69 137 3.5 8.7 0.00 0.00 0.00 6 1018.8
20221203015930 69 93 7.0 11.3 0.00 0.00 0.00 6 1019.0
20221203014927 69 104 3.5 11.3 0.00 0.00 0.00 6 1019.2
20221203013926 68 111 3.5 10.4 0.00 0.00 0.00 6 1019.1
20221203012922 69 105 8.7 10.4 0.00 0.00 0.00 6 1019.0
20221203005911 69 89 9.6 13.0 0.00 0.00 0.00 6 1019.3
20221203004908 69 137 7.8 12.2 0.00 0.00 0.00 6 1019.4
20221203003906 69 124 9.6 13.0 0.00 0.00 0.00 7 1019.3
20221203002904 69 98 6.1 11.3 0.00 0.00 0.00 7 1019.4
20221203001902 70 93 12.2 12.2 0.00 0.00 0.00 7 1019.4
20221202235854 68 115 7.0 10.4 0.00 0.00 0.00 7 1019.5
20221202234852 68 124 8.7 10.4 0.00 0.00 0.00 7 1019.5
20221202233851 68 88 3.5 11.3 0.00 0.00 0.00 7 1019.4
20221202232847 68 96 2.6 8.7 0.00 0.00 0.00 7 1019.4
20221202231845 67 160 2.6 8.7 0.00 0.00 0.00 7 1019.3
20221202230841 67 125 2.6 7.0 0.00 0.00 0.00 7 1019.4
20221202225838 67 206 1.7 2.6 0.00 0.00 0.00 7 1019.4
20221202224835 66 168 0.9 3.5 0.00 0.00 0.00 7 1019.5
20221202223833 66 0 0.0 2.6 0.00 0.00 0.00 7 1019.4
20221202222831 66 158 2.6 3.5 0.00 0.00 0.00 7 1019.6
20221202221828 66 217 0.9 2.6 0.00 0.01 0.00 7 1019.6
20221202220825 68 185 2.6 3.5 0.00 0.01 0.00 7 1019.6
20221202215822 66 0 0.0 2.6 0.00 0.01 0.00 7 1019.8
20221202213816 67 209 1.7 4.3 0.00 0.01 0.00 7 1020.0
20221202212814 64 162 3.5 5.2 0.00 0.01 0.00 7 1020.0
20221202211811 65 164 0.9 4.3 0.00 0.01 0.00 7 1019.9
20221202210809 65 208 3.5 7.0 0.00 0.01 0.00 7 1019.8
20221202205807 65 212 2.6 3.5 0.00 0.01 0.00 7 1019.6
20221202202757 64 226 3.5 3.5 0.00 0.01 0.00 8 1019.2
20221202201756 62 254 1.7 5.2 0.00 0.01 0.00 8 1019.2
20221202200753 62 224 2.6 5.2 0.00 0.01 0.00 8 1019.2
20221202195750 61 249 2.6 7.0 0.00 0.01 0.00 8 1019.1
20221202193742 60 253 4.3 7.0 0.00 0.01 0.00 8 1018.8
20221202192740 60 245 2.6 6.1 0.00 0.01 0.00 8 1018.6
20221202191737 59 222 0.9 7.0 0.00 0.01 0.00 8 1018.6
20221202190735 59 233 4.3 7.8 0.00 0.01 0.00 8 1018.5
20221202185733 59 224 5.2 7.0 0.00 0.01 0.00 8 1018.4
20221202183724 60 243 2.6 6.1 0.00 0.01 0.00 8 1018.3
20221202182721 60 233 2.6 8.7 0.00 0.01 0.00 8 1018.4
20221202181720 60 236 5.2 8.7 0.00 0.01 0.00 8 1018.2
20221202180714 60 251 7.0 7.8 0.00 0.01 0.00 8 1018.2
20221202175711 60 244 3.5 7.8 0.00 0.01 0.00 8 1018.2
20221202171702 60 214 3.5 7.8 0.00 0.01 0.00 8 1018.1
20221202170658 60 229 3.5 7.8 0.00 0.01 0.00 8 1018.2
20221202165655 60 250 3.5 7.8 0.00 0.01 0.00 8 1018.1
20221202164652 60 225 7.8 9.6 0.00 0.01 0.00 8 1018.1
20221202163650 60 237 4.3 7.0 0.00 0.01 0.00 8 1018.0
20221202162647 60 270 3.5 7.0 0.00 0.01 0.00 8 1018.1
20221202161645 60 251 3.5 7.0 0.00 0.01 0.00 8 1018.1
20221202160641 60 247 2.6 3.5 0.00 0.01 0.00 8 1018.2
20221202160332 60 253 2.6 5.2 0.00 0.01 0.00 8 1018.1
20221202155329 60 249 4.3 7.0 0.00 0.01 0.00 8 1018.2
20221202154327 60 256 7.0 8.7 0.00 0.01 0.00 8 1018.2
20221202153323 60 250 2.6 4.3 0.00 0.01 0.00 8 1018.3
20221202152321 60 222 4.3 5.2 0.00 0.01 0.00 8 1018.4
20221202151317 60 237 3.5 4.3 0.00 0.01 0.00 8 1018.4
20221202150315 60 231 2.6 7.0 0.00 0.01 0.00 8 1018.5
20221202145313 60 221 2.6 6.1 0.00 0.01 0.00 8 1018.5
20221202144310 60 258 3.5 6.1 0.00 0.01 0.00 8 1018.6
20221202143307 60 231 2.6 6.1 0.00 0.01 0.00 8 1018.8
20221202142305 61 241 2.6 7.0 0.00 0.01 0.00 8 1018.8
20221202141302 61 257 1.7 4.3 0.00 0.01 0.00 8 1018.9
20221202140259 61 256 1.7 2.6 0.00 0.01 0.00 8 1018.9
20221202135257 61 237 1.7 3.5 0.00 0.01 0.00 8 1019.0
20221202134255 61 232 0.9 2.6 0.00 0.01 0.00 8 1019.1
20221202133250 60 0 0.0 0.0 0.00 0.01 0.00 8 1019.2
20221202132247 60 0 0.0 0.0 0.00 0.01 0.00 8 1019.3
20221202131244 60 0 0.0 0.0 0.00 0.01 0.00 8 1019.3
20221202130238 61 0 0.0 0.0 0.00 0.01 0.00 8 1019.4
20221202125235 60 0 0.0 0.0 0.00 0.01 0.01 8 1019.5
20221202124229 60 0 0.0 0.0 0.00 0.01 0.01 8 1019.6
20221202123227 61 0 0.0 0.0 0.00 0.01 0.01 8 1019.7
20221202122225 61 0 0.0 0.0 0.00 0.01 0.01 8 1019.6
20221202121222 61 0 0.0 0.0 0.00 0.01 0.01 8 1019.5
20221202120220 61 0 0.0 0.0 0.00 0.01 0.01 8 1019.7
20221202115217 61 0 0.0 0.0 0.00 0.01 0.01 8 1019.7
20221202114212 61 0 0.0 0.0 0.00 0.01 0.01 8 1019.8
20221202113208 62 0 0.0 0.0 0.00 0.01 0.01 8 1019.7
20221202112204 62 0 0.0 0.0 0.00 0.01 0.01 8 1019.8
20221202111202 62 0 0.0 0.0 0.00 0.01 0.01 8 1019.8
20221202110200 62 0 0.0 0.0 0.00 0.01 0.01 8 1019.8
20221202105157 62 0 0.0 0.0 0.00 0.01 0.01 8 1019.9
20221202104155 63 0 0.0 0.0 0.00 0.01 0.01 8 1019.8
20221202103152 63 0 0.0 0.9 0.00 0.01 0.01 8 1019.8
20221202102148 63 0 0.0 1.7 0.00 0.01 0.01 8 1019.8
20221202101146 63 0 0.0 1.7 0.00 0.01 0.01 8 1019.7
20221202100143 63 189 0.9 7.8 0.00 0.01 0.01 8 1019.6
20221202095141 63 0 0.0 0.9 0.00 0.01 0.01 8 1019.5
20221202094138 64 185 1.7 4.3 0.00 0.01 0.01 7 1019.3
20221202093136 64 0 0.0 5.2 0.00 0.01 0.01 7 1019.4
20221202092130 64 192 2.6 3.5 0.00 0.01 0.01 7 1019.2
20221202091125 64 180 3.5 3.5 0.00 0.01 0.01 7 1019.0
20221202090123 64 104 2.6 7.0 0.00 0.01 0.01 7 1019.0
20221202085120 64 159 0.9 2.6 0.00 0.01 0.01 7 1018.9
20221202084118 64 124 1.7 3.5 0.00 0.01 0.01 7 1019.0
20221202083116 64 166 5.2 5.2 0.00 0.01 0.01 7 1018.9
20221202082113 65 185 2.6 2.6 0.00 0.01 0.01 7 1018.8
20221202081108 65 192 1.7 3.5 0.00 0.01 0.01 7 1018.8
20221202080105 65 141 3.5 4.3 0.00 0.01 0.01 7 1018.6
20221202075103 65 109 4.3 6.1 0.00 0.01 0.01 7 1018.3
20221202074100 65 114 2.6 7.8 0.00 0.01 0.01 7 1018.2
20221202073055 65 143 2.6 7.8 0.00 0.01 0.01 7 1018.0
20221202072053 65 140 3.5 7.0 0.00 0.01 0.01 7 1018.0
20221202071051 65 164 2.6 7.8 0.00 0.01 0.01 7 1017.9
20221202064047 66 222 2.6 7.8 0.00 0.01 0.01 7 1017.6
20221202063040 67 88 6.1 13.0 0.00 0.01 0.01 7 1017.5
20221202062038 67 82 5.2 11.3 0.00 0.01 0.01 6 1017.4
20221202061035 68 175 7.0 12.2 0.00 0.01 0.01 7 1017.3
20221202060033 67 99 8.7 8.7 0.00 0.01 0.01 6 1017.3
20221202055033 68 92 3.5 6.1 0.00 0.01 0.01 7 1017.2
20221202054032 67 91 2.6 7.0 0.00 0.01 0.01 6 1017.2
20221202053024 68 143 3.5 7.8 0.00 0.01 0.01 7 1017.2
20221202052020 67 90 7.0 7.0 0.00 0.01 0.01 7 1017.2
20221202051018 67 75 4.3 4.3 0.00 0.01 0.01 7 1017.2